"Pseudo-MPEC" for P116fnU

Created 2020 Sep 24 21:07:19 UT using Find_Orb

Click here for an explanation of pseudo-MPECs

 
 Astrometry: 
     P116fnU  C2020 09 16xJAstrometryNP77=mHuc=WesNi@pyoK\OsRwB!iredacted;8T:F51
     P116fnU  C2020 09 16g*+X!xPbwa'pclick5p6+Ihere+1+4^82[mUsGI:QUL,-,\Ifor*F51
     P116fnU  C2020 09 16wP3G7rJv]0eexplanationBHQ#;,PcVEneqUr$kv.iLbVMS(x*fbF51

Station data:
(F51) Pan-STARRS 1, Haleakala  (N20.707235 W156.255910)  US/Hawaii.
   Observers N. Primak, A. Schultz, S. Watters, J. Thiel, T. Goggia. Measurer
   PS1 Science Consortium. 1.8-m Ritchey-Chrétien + CCD.

Orbital elements:  P116fnU
   Perihelion 2020 May 7.777962 +/- 26.1 TT = 18:40:15 (JD 2458977.277962)
Epoch 2020 Sep 16.0 TT = JDT 2459108.5   Earth MOID: 0.0015   AutoNEOCP
M 132.37148956 +/- 39               (J2000 ecliptic)
n   1.00875958 +/- 0.669            Peri.   43.43911 +/- 60
a   0.98464028 +/- 0.435            Node   174.20341 +/- 19
e   0.0363303 +/- 0.245             Incl.    0.78553 +/- 42
P   0.98/356.87d           H 30.2   G  0.15   U 12.5  SR
q 0.94886794 +/- 0.387    Q 1.02041262 +/- 23.7
From 3 observations 2020 Sept. 16 (30.4 min); mean residual 0".20
Residuals in arcseconds: 
200916 F51  .05-  .20-    200916 F51  .09+  .38+    200916 F51  .04-  .18-    

Ephemerides (geocentric):
Date (UTC) HH   RA              Dec         delta   r     elong  mag " sig PA
---- -- -- --  -------------   -----------  ------ ------ -----  --- ---- ---
2020 09 24 21  21 43 31.549   -21 45 17.50  .01313 1.0128 138.3 22.4  23d 170
2020 09 24 22  21 43 47.245   -21 45 28.00  .01316 1.0128 138.3 22.4  23d 170
2020 09 24 23  21 44 02.879   -21 45 38.28  .01319 1.0128 138.3 22.4  23d 170
2020 09 25 00  21 44 18.451   -21 45 48.33  .01322 1.0128 138.3 22.4  23d 170
2020 09 25 01  21 44 33.961   -21 45 58.17  .01326 1.0128 138.4 22.4  23d 170
2020 09 25 02  21 44 49.411   -21 46 07.80  .01329 1.0128 138.4 22.4  23d 170
2020 09 25 03  21 45 04.799   -21 46 17.21  .01332 1.0128 138.4 22.4  23d 170
2020 09 25 04  21 45 20.128   -21 46 26.42  .01335 1.0129 138.4 22.4  23d 170
2020 09 25 05  21 45 35.396   -21 46 35.41  .01338 1.0129 138.4 22.4  23d 170
2020 09 25 06  21 45 50.606   -21 46 44.20  .01341 1.0129 138.4 22.4  23d 170
2020 09 25 07  21 46 05.756   -21 46 52.77  .01344 1.0129 138.4 22.4  23d 170
2020 09 25 08  21 46 20.847   -21 47 01.15  .01347 1.0129 138.4 22.4  23d 170
2020 09 25 09  21 46 35.880   -21 47 09.32  .01351 1.0129 138.4 22.4  23d 170
2020 09 25 10  21 46 50.855   -21 47 17.30  .01354 1.0129 138.5 22.5  23d 170
2020 09 25 11  21 47 05.773   -21 47 25.07  .01357 1.0130 138.5 22.5  23d 170
2020 09 25 12  21 47 20.633   -21 47 32.65  .01360 1.0130 138.5 22.5  23d 170
2020 09 25 13  21 47 35.436   -21 47 40.03  .01363 1.0130 138.5 22.5  23d 170
2020 09 25 14  21 47 50.183   -21 47 47.21  .01366 1.0130 138.5 22.5  23d 170
2020 09 25 15  21 48 04.874   -21 47 54.21  .01369 1.0130 138.5 22.5  23d 171
2020 09 25 16  21 48 19.509   -21 48 01.01  .01373 1.0130 138.5 22.5  23d 171
2020 09 25 17  21 48 34.088   -21 48 07.62  .01376 1.0130 138.5 22.5  23d 171
2020 09 25 18  21 48 48.613   -21 48 14.05  .01379 1.0130 138.5 22.5  23d 171
2020 09 25 19  21 49 03.083   -21 48 20.29  .01382 1.0131 138.5 22.5  23d 171
2020 09 25 20  21 49 17.498   -21 48 26.34  .01385 1.0131 138.5 22.5  23d 171
2020 09 25 21  21 49 31.859   -21 48 32.21  .01388 1.0131 138.6 22.5  23d 171
2020 09 25 22  21 49 46.167   -21 48 37.90  .01392 1.0131 138.6 22.5  23d 171
2020 09 25 23  21 50 00.421   -21 48 43.41  .01395 1.0131 138.6 22.5  23d 171
2020 09 26 00  21 50 14.622   -21 48 48.74  .01398 1.0131 138.6 22.5  24d 171
2020 09 26 01  21 50 28.770   -21 48 53.89  .01401 1.0131 138.6 22.5  24d 171
2020 09 26 02  21 50 42.866   -21 48 58.87  .01404 1.0131 138.6 22.5  24d 171
2020 09 26 03  21 50 56.910   -21 49 03.67  .01407 1.0132 138.6 22.5  24d 171
2020 09 26 04  21 51 10.902   -21 49 08.30  .01410 1.0132 138.6 22.5  24d 171
2020 09 26 05  21 51 24.843   -21 49 12.76  .01414 1.0132 138.6 22.5  24d 171
2020 09 26 06  21 51 38.732   -21 49 17.05  .01417 1.0132 138.6 22.5  24d 171
2020 09 26 07  21 51 52.571   -21 49 21.16  .01420 1.0132 138.6 22.6  24d 171
2020 09 26 08  21 52 06.359   -21 49 25.11  .01423 1.0132 138.6 22.6  24d 171
2020 09 26 09  21 52 20.097   -21 49 28.90  .01426 1.0132 138.6 22.6  24d 171
2020 09 26 10  21 52 33.785   -21 49 32.52  .01429 1.0133 138.6 22.6  24d 171
2020 09 26 11  21 52 47.424   -21 49 35.97  .01433 1.0133 138.6 22.6  24d 171
2020 09 26 12  21 53 01.013   -21 49 39.26  .01436 1.0133 138.7 22.6  24d 171
2020 09 26 13  21 53 14.554   -21 49 42.39  .01439 1.0133 138.7 22.6  24d 171
2020 09 26 14  21 53 28.045   -21 49 45.36  .01442 1.0133 138.7 22.6  24d 171
2020 09 26 15  21 53 41.489   -21 49 48.18  .01445 1.0133 138.7 22.6  24d 171
2020 09 26 16  21 53 54.884   -21 49 50.83  .01448 1.0133 138.7 22.6  24d 171
2020 09 26 17  21 54 08.231   -21 49 53.33  .01452 1.0133 138.7 22.6  24d 171
2020 09 26 18  21 54 21.531   -21 49 55.67  .01455 1.0134 138.7 22.6  24d 171
2020 09 26 19  21 54 34.783   -21 49 57.86  .01458 1.0134 138.7 22.6  24d 171
2020 09 26 20  21 54 47.989   -21 49 59.90  .01461 1.0134 138.7 22.6  24d 171